FW1946 Weather Reports


Display with metric or nautical units.
time (UTC)temp
F
wind
direction
speed
MPH
gust
MPH
rain 1hr
in
rain 24hr
in
rain mn
in
humidity
%
barometer
mb
20260504031537 75 225 0.0 2.0 0.00 0.00 0.00 39 1007.7
20260504030035 76 171 0.0 2.0 0.00 0.00 0.00 37 1007.6
20260504024531 77 251 0.0 2.0 0.00 0.00 0.00 36 1007.5
20260504023030 78 304 0.0 1.0 0.00 0.00 0.00 35 1007.6
20260504021533 80 157 0.0 2.0 0.00 0.00 0.00 34 1007.7
20260504014535 83 215 0.0 2.0 0.00 0.00 0.00 32 1008.0
20260504013035 84 12 0.0 4.0 0.00 0.00 0.00 31 1008.1
20260504011607 85 354 0.0 4.0 0.00 0.00 0.00 29 1008.3
20260504004535 86 9 0.0 4.0 0.00 0.00 0.00 29 1008.5
20260504001531 86 56 0.0 6.0 0.00 0.00 0.00 29 1008.8
20260504000031 86 9 0.0 6.0 0.00 0.00 0.00 29 1008.9
20260503234535 86 74 0.0 3.0 0.00 0.00 0.00 28 1009.1
20260503233142 86 48 0.0 4.0 0.00 0.00 0.00 29 1009.3
20260503231536 86 28 0.0 4.0 0.00 0.00 0.00 29 1009.5
20260503223033 86 101 1.0 4.0 0.00 0.00 0.00 27 1010.3
20260503221535 86 47 1.0 6.0 0.00 0.00 0.00 28 1010.6
20260503220107 86 174 1.0 5.0 0.00 0.00 0.00 29 1010.7
20260503214530 86 30 1.0 6.0 0.00 0.00 0.00 29 1010.9
20260503213111 86 70 1.0 7.0 0.00 0.00 0.00 30 1011.2
20260503211531 86 10 1.0 6.0 0.00 0.00 0.00 31 1011.4
20260503210034 86 17 1.0 6.0 0.00 0.00 0.00 31 1011.5
20260503204531 86 120 1.0 5.0 0.00 0.00 0.00 31 1011.8
20260503203033 86 23 1.0 9.0 0.00 0.00 0.00 31 1011.9
20260503201643 86 11 2.0 8.0 0.00 0.00 0.00 32 1012.1
20260503200037 85 30 1.0 10.0 0.00 0.00 0.00 33 1012.3
20260503194643 84 27 2.0 8.0 0.00 0.00 0.00 37 1012.4
20260503193042 82 346 1.0 5.0 0.00 0.00 0.00 42 1012.6
20260503191531 80 327 2.0 6.0 0.00 0.00 0.00 45 1012.9
20260503190035 79 317 2.0 7.0 0.00 0.00 0.00 46 1013.1
20260503184535 78 332 1.0 5.0 0.00 0.00 0.00 47 1013.3
20260503183107 76 347 1.0 5.0 0.00 0.00 0.00 49 1013.5
20260503181529 75 348 1.0 5.0 0.00 0.00 0.00 50 1013.7
20260503174536 73 326 1.0 4.0 0.00 0.00 0.00 53 1014.0
20260503173036 71 339 1.0 3.0 0.00 0.00 0.00 56 1014.2
20260503171530 70 346 1.0 4.0 0.00 0.00 0.00 59 1014.3
20260503071642 54 157 0.0 0.0 0.00 0.00 0.00 90 1014.4
20260503054538 57 337 0.0 0.0 0.00 0.00 0.00 85 1014.1
20260503053035 58 337 0.0 0.0 0.00 0.00 0.00 84 1014.3
20260503051536 60 337 0.0 0.0 0.00 0.00 0.00 79 1013.9
20260503043032 61 337 0.0 1.0 0.00 0.00 0.00 79 1013.8
20260503041540 60 337 1.0 3.0 0.00 0.00 0.00 79 1013.6
20260503040042 61 337 0.0 1.0 0.00 0.00 0.00 77 1013.3
20260503034538 62 337 0.0 0.0 0.00 0.00 0.00 75 1013.0